QPF
0.01 0.01 0.01 0.02 0.02 0.03 0.02 0.02 0.01 0.00 0.00 0.00 0.01 0.02 0.03 0.02 0.02 0.03 0.06 0.06 0.07 0.08 0.15 0.27 0.26 0.22 0.17 0.13 0.13 0.12 0.10 0.07 0.04 0.03 0.02 0.03 0.03 0.03 0.04 0.04 0.05 0.05 0.05
0.02 0.01 0.01 0.01 0.01 0.03 0.04 0.02 0.01 0.00 0.00 0.00 0.00 0.01 0.02 0.02 0.01 0.01 0.02 0.02 0.02 0.03 0.06 0.13 0.14 0.13 0.11 0.07 0.06 0.04 0.03 0.02 0.02 0.02 0.02 0.02 0.03 0.03 0.02 0.02 0.04 0.05 0.06
0.01 0.01 0.01 0.01 0.01 0.03 0.05 0.03 0.01 0.00 0.00 0.00 0.00 0.00 0.01 0.01 0.01 0.01 0.01 0.02 0.01 0.01 0.02 0.04 0.06 0.06 0.05 0.04 0.03 0.02 0.02 0.02 0.02 0.02 0.02 0.02 0.02 0.02 0.01 0.01 0.03 0.05 0.07
0.01 0.01 0.01 0.01 0.02 0.03 0.03 0.03 0.02 0.01 0.00 0.00 0.00 0.01 0.01 0.01 0.01 0.01 0.01 0.02 0.01 0.01 0.01 0.02 0.03 0.04 0.04 0.05 0.04 0.03 0.02 0.02 0.03 0.03 0.02 0.02 0.02 0.01 0.01 0.01 0.02 0.04 0.05
0.01 0.01 0.01 0.01 0.02 0.02 0.02 0.02 0.01 0.01 0.01 0.00 0.00 0.01 0.01 0.01 0.00 0.00 0.01 0.01 0.01 0.01 0.01 0.01 0.01 0.01 0.02 0.03 0.04 0.04 0.02 0.02 0.03 0.03 0.02 0.02 0.02 0.02 0.02 0.01 0.02 0.02 0.03
0.02 0.01 0.01 0.01 0.01 0.01 0.02 0.02 0.01 0.00 0.01 0.01 0.00 0.01 0.00 0.00 0.00 0.00 0.00 0.00 0.01 0.01 0.01 0.01 0.00 0.00 0.00 0.01 0.02 0.04 0.04 0.02 0.02 0.03 0.03 0.02 0.02 0.02 0.02 0.02 0.02 0.02 0.02
0.02 0.01 0.01 0.01 0.01 0.02 0.02 0.02 0.01 0.01 0.01 0.00 0.01 0.01 0.00 0.00 0.00 0.00 0.00 0.00 0.00 0.01 0.01 0.01 0.01 0.01 0.00 0.00 0.01 0.03 0.04 0.04 0.03 0.04 0.04 0.02 0.02 0.02 0.02 0.02 0.02 0.02 0.02
0.02 0.01 0.01 0.01 0.02 0.02 0.02 0.02 0.02 0.02 0.01 0.01 0.01 0.01 0.01 0.01 0.00 0.00 0.00 0.00 0.00 0.00 0.00 0.00 0.00 0.01 0.01 0.01 0.01 0.01 0.01 0.04 0.04 0.04 0.04 0.03 0.02 0.02 0.02 0.02 0.03 0.02 0.02
0.01 0.01 0.01 0.01 0.02 0.02 0.02 0.01 0.01 0.02 0.02 0.01 0.00 0.01 0.01 0.01 0.01 0.01 0.00 0.00 0.00 0.00 0.00 0.00 0.00 0.00 0.00 0.01 0.02 0.01 0.00 0.01 0.03 0.05 0.05 0.04 0.03 0.03 0.03 0.03 0.03 0.03 0.02
0.02 0.02 0.02 0.02 0.02 0.02 0.02 0.01 0.01 0.02 0.02 0.02 0.01 0.00 0.00 0.00 0.00 0.01 0.01 0.00 0.00 0.00 0.00 0.00 0.00 0.01 0.00 0.01 0.02 0.01 0.00 0.00 0.01 0.03 0.06 0.05 0.03 0.03 0.03 0.04 0.03 0.03 0.03
0.01 0.02 0.02 0.01 0.01 0.01 0.01 0.01 0.01 0.02 0.02 0.01 0.01 0.01 0.01 0.00 0.00 0.00 0.01 0.01 0.00 0.00 0.00 0.00 0.01 0.01 0.00 0.01 0.02 0.02 0.01 0.01 0.01 0.02 0.04 0.07 0.05 0.05 0.05 0.05 0.04 0.04 0.04
0.01 0.02 0.02 0.01 0.01 0.01 0.01 0.01 0.01 0.02 0.01 0.02 0.01 0.01 0.01 0.01 0.00 0.01 0.01 0.01 0.01 0.01 0.00 0.00 0.00 0.01 0.01 0.01 0.01 0.01 0.01 0.01 0.01 0.01 0.02 0.05 0.04 0.04 0.06 0.08 0.08 0.05 0.04
0.01 0.01 0.02 0.01 0.01 0.02 0.02 0.01 0.01 0.01 0.02 0.02 0.01 0.01 0.01 0.00 0.00 0.01 0.01 0.01 0.01 0.01 0.00 0.00 0.01 0.01 0.00 0.01 0.01 0.01 0.01 0.02 0.02 0.02 0.01 0.02 0.03 0.03 0.05 0.07 0.07 0.09 0.06
0.01 0.01 0.01 0.02 0.02 0.01 0.01 0.01 0.01 0.02 0.01 0.02 0.01 0.01 0.01 0.01 0.00 0.01 0.01 0.01 0.01 0.01 0.00 0.00 0.01 0.01 0.01 0.01 0.01 0.02 0.02 0.03 0.03 0.02 0.02 0.02 0.02 0.02 0.02 0.04 0.03 0.05 0.05
0.02 0.02 0.02 0.02 0.01 0.01 0.01 0.00 0.01 0.01 0.01 0.01 0.01 0.02 0.02 0.02 0.01 0.01 0.01 0.01 0.01 0.01 0.01 0.01 0.00 0.01 0.01 0.01 0.01 0.02 0.03 0.03 0.03 0.03 0.02 0.01 0.01 0.01 0.01 0.02 0.02 0.02 0.03
0.01 0.01 0.01 0.02 0.02 0.01 0.01 0.01 0.00 0.01 0.01 0.01 0.02 0.02 0.02 0.02 0.01 0.01 0.01 0.01 0.01 0.01 0.01 0.01 0.01 0.01 0.02 0.01 0.01 0.02 0.03 0.03 0.03 0.03 0.02 0.01 0.01 0.01 0.01 0.01 0.01 0.01 0.01
0.01 0.01 0.01 0.01 0.01 0.01 0.01 0.00 0.00 0.01 0.01 0.01 0.02 0.02 0.03 0.02 0.01 0.01 0.01 0.01 0.01 0.01 0.01 0.01 0.01 0.02 0.02 0.01 0.01 0.02 0.03 0.03 0.03 0.02 0.02 0.01 0.01 0.01 0.01 0.01 0.01 0.01 0.01
0.01 0.01 0.01 0.01 0.01 0.01 0.01 0.01 0.01 0.01 0.01 0.01 0.01 0.01 0.01 0.02 0.02 0.02 0.01 0.02 0.01 0.01 0.01 0.01 0.01 0.02 0.02 0.01 0.01 0.02 0.02 0.02 0.02 0.01 0.01 0.01 0.01 0.01 0.02 0.01 0.02 0.02 0.01
0.01 0.01 0.01 0.01 0.01 0.01 0.01 0.01 0.01 0.02 0.01 0.01 0.01 0.01 0.01 0.01 0.02 0.03 0.04 0.03 0.03 0.02 0.01 0.02 0.02 0.02 0.02 0.02 0.01 0.01 0.01 0.02 0.02 0.02 0.01 0.02 0.02 0.02 0.03 0.02 0.02 0.02 0.01
0.01 0.01 0.01 0.01 0.01 0.01 0.01 0.01 0.01 0.02 0.02 0.01 0.01 0.01 0.01 0.01 0.01 0.02 0.03 0.04 0.04 0.03 0.03 0.03 0.04 0.03 0.02 0.03 0.03 0.02 0.01 0.01 0.02 0.02 0.02 0.02 0.02 0.02 0.03 0.02 0.01 0.01 0.01
0.01 0.01 0.01 0.01 0.01 0.01 0.01 0.01 0.02 0.02 0.02 0.02 0.01 0.01 0.01 0.01 0.02 0.02 0.02 0.03 0.04 0.05 0.05 0.05 0.05 0.04 0.02 0.02 0.03 0.03 0.02 0.02 0.01 0.01 0.02 0.02 0.02 0.02 0.02 0.02 0.01 0.01 0.02
0.01 0.01 0.01 0.01 0.01 0.01 0.01 0.01 0.02 0.02 0.02 0.02 0.02 0.01 0.01 0.02 0.02 0.02 0.02 0.03 0.03 0.04 0.05 0.06 0.06 0.05 0.03 0.02 0.03 0.03 0.02 0.02 0.01 0.01 0.01 0.01 0.01 0.02 0.03 0.03 0.02 0.01 0.02
0.02 0.01 0.01 0.01 0.01 0.02 0.02 0.02 0.02 0.02 0.02 0.02 0.02 0.02 0.02 0.02 0.02 0.02 0.02 0.03 0.02 0.03 0.03 0.04 0.05 0.05 0.05 0.05 0.04 0.04 0.03 0.02 0.01 0.01 0.01 0.01 0.01 0.01 0.02 0.03 0.03 0.01 0.01
0.01 0.02 0.01 0.01 0.01 0.02 0.02 0.02 0.02 0.02 0.02 0.02 0.03 0.03 0.03 0.02 0.02 0.02 0.02 0.03 0.03 0.03 0.04 0.03 0.04 0.04 0.05 0.06 0.05 0.03 0.03 0.02 0.02 0.01 0.02 0.03 0.02 0.01 0.02 0.03 0.03 0.02 0.01
0.01 0.01 0.01 0.01 0.01 0.02 0.02 0.02 0.02 0.02 0.02 0.03 0.04 0.03 0.03 0.02 0.02 0.02 0.02 0.03 0.03 0.04 0.04 0.04 0.04 0.04 0.04 0.04 0.05 0.05 0.03 0.02 0.02 0.02 0.02 0.03 0.03 0.04 0.03 0.03 0.03 0.03 0.03
0.02 0.01 0.01 0.01 0.02 0.02 0.03 0.02 0.03 0.03 0.03 0.04 0.04 0.05 0.04 0.03 0.03 0.02 0.02 0.03 0.02 0.02 0.03 0.04 0.04 0.04 0.03 0.03 0.03 0.04 0.04 0.03 0.02 0.02 0.02 0.02 0.03 0.05 0.06 0.04 0.03 0.03 0.03
MSLP
1011.30 1011.17 1011.01 1010.81 1010.60 1010.38 1010.19 1010.02 1009.88 1009.79 1009.72 1009.69 1009.70 1009.74 1009.82 1009.94 1010.10 1010.29 1010.48 1010.66 1010.80 1010.88 1010.91 1010.88 1010.82 1010.76 1010.71 1010.71 1010.75 1010.85 1010.99 1011.14 1011.30 1011.43 1011.55 1011.66 1011.75 1011.85 1011.95 1012.07 1012.20 1012.32 1012.42
1011.76 1011.60 1011.42 1011.22 1011.02 1010.82 1010.64 1010.47 1010.33 1010.21 1010.11 1010.02 1009.96 1009.94 1009.95 1010.01 1010.12 1010.26 1010.42 1010.57 1010.69 1010.76 1010.79 1010.76 1010.70 1010.63 1010.57 1010.55 1010.56 1010.62 1010.72 1010.83 1010.95 1011.06 1011.17 1011.28 1011.38 1011.49 1011.62 1011.75 1011.87 1011.99 1012.08
1012.33 1012.15 1011.95 1011.74 1011.53 1011.34 1011.15 1010.98 1010.82 1010.66 1010.51 1010.37 1010.25 1010.17 1010.14 1010.16 1010.23 1010.34 1010.49 1010.63 1010.74 1010.82 1010.85 1010.83 1010.77 1010.70 1010.63 1010.57 1010.55 1010.55 1010.59 1010.64 1010.70 1010.77 1010.84 1010.93 1011.02 1011.13 1011.26 1011.38 1011.50 1011.61 1011.68
1013.00 1012.80 1012.58 1012.36 1012.15 1011.95 1011.75 1011.55 1011.35 1011.15 1010.95 1010.76 1010.60 1010.48 1010.42 1010.42 1010.48 1010.58 1010.72 1010.86 1010.99 1011.08 1011.12 1011.11 1011.06 1010.98 1010.90 1010.82 1010.74 1010.69 1010.65 1010.62 1010.60 1010.60 1010.62 1010.65 1010.72 1010.80 1010.90 1011.01 1011.11 1011.19 1011.25
1013.73 1013.51 1013.28 1013.06 1012.85 1012.64 1012.42 1012.19 1011.96 1011.71 1011.47 1011.24 1011.04 1010.90 1010.82 1010.81 1010.87 1010.98 1011.12 1011.27 1011.40 1011.50 1011.55 1011.56 1011.52 1011.45 1011.36 1011.25 1011.14 1011.02 1010.91 1010.79 1010.68 1010.59 1010.53 1010.49 1010.49 1010.53 1010.58 1010.65 1010.72 1010.77 1010.80
1014.46 1014.24 1014.03 1013.81 1013.60 1013.39 1013.16 1012.91 1012.64 1012.35 1012.07 1011.81 1011.59 1011.43 1011.35 1011.34 1011.39 1011.50 1011.65 1011.79 1011.92 1012.02 1012.08 1012.10 1012.08 1012.02 1011.93 1011.82 1011.68 1011.51 1011.32 1011.12 1010.92 1010.74 1010.58 1010.45 1010.37 1010.33 1010.32 1010.33 1010.34 1010.35 1010.35
1015.15 1014.96 1014.77 1014.58 1014.39 1014.18 1013.95 1013.68 1013.39 1013.08 1012.77 1012.49 1012.25 1012.08 1011.99 1011.97 1012.02 1012.12 1012.24 1012.36 1012.47 1012.56 1012.61 1012.64 1012.63 1012.59 1012.52 1012.41 1012.26 1012.06 1011.83 1011.56 1011.28 1011.00 1010.74 1010.52 1010.35 1010.22 1010.13 1010.07 1010.02 1009.97 1009.92
1015.78 1015.62 1015.48 1015.33 1015.17 1014.98 1014.76 1014.50 1014.20 1013.87 1013.55 1013.26 1013.01 1012.84 1012.73 1012.70 1012.71 1012.77 1012.84 1012.91 1012.98 1013.03 1013.06 1013.08 1013.09 1013.07 1013.02 1012.93 1012.79 1012.59 1012.33 1012.01 1011.67 1011.31 1010.97 1010.67 1010.41 1010.19 1010.02 1009.88 1009.76 1009.64 1009.54
1016.33 1016.23 1016.13 1016.03 1015.91 1015.76 1015.57 1015.32 1015.02 1014.71 1014.39 1014.10 1013.85 1013.67 1013.54 1013.47 1013.44 1013.43 1013.42 1013.41 1013.40 1013.39 1013.38 1013.37 1013.38 1013.38 1013.36 1013.31 1013.19 1013.00 1012.74 1012.40 1012.02 1011.61 1011.21 1010.84 1010.51 1010.23 1009.98 1009.77 1009.57 1009.40 1009.24
1016.81 1016.76 1016.72 1016.67 1016.60 1016.48 1016.32 1016.10 1015.83 1015.54 1015.24 1014.96 1014.72 1014.53 1014.38 1014.26 1014.16 1014.07 1013.96 1013.85 1013.74 1013.64 1013.56 1013.52 1013.51 1013.51 1013.52 1013.49 1013.41 1013.24 1012.99 1012.66 1012.27 1011.84 1011.41 1011.00 1010.62 1010.29 1009.99 1009.72 1009.47 1009.23 1009.01
1017.23 1017.23 1017.23 1017.22 1017.19 1017.12 1016.99 1016.81 1016.58 1016.32 1016.05 1015.80 1015.58 1015.38 1015.21 1015.05 1014.88 1014.69 1014.47 1014.25 1014.02 1013.82 1013.66 1013.56 1013.51 1013.51 1013.51 1013.50 1013.44 1013.30 1013.07 1012.75 1012.37 1011.94 1011.51 1011.10 1010.71 1010.36 1010.03 1009.73 1009.43 1009.14 1008.87
1017.59 1017.63 1017.66 1017.69 1017.69 1017.65 1017.56 1017.41 1017.22 1017.01 1016.78 1016.57 1016.37 1016.18 1015.99 1015.79 1015.56 1015.29 1014.97 1014.63 1014.29 1013.99 1013.74 1013.56 1013.46 1013.42 1013.41 1013.39 1013.33 1013.20 1012.98 1012.68 1012.31 1011.91 1011.49 1011.10 1010.73 1010.38 1010.06 1009.75 1009.43 1009.11 1008.79
1017.91 1017.96 1018.02 1018.07 1018.09 1018.07 1018.01 1017.89 1017.75 1017.57 1017.40 1017.22 1017.06 1016.89 1016.70 1016.48 1016.20 1015.86 1015.47 1015.04 1014.60 1014.19 1013.85 1013.59 1013.42 1013.32 1013.26 1013.21 1013.12 1012.98 1012.75 1012.46 1012.11 1011.72 1011.34 1010.98 1010.64 1010.33 1010.03 1009.73 1009.41 1009.08 1008.73
1018.18 1018.25 1018.32 1018.37 1018.40 1018.40 1018.35 1018.27 1018.15 1018.01 1017.88 1017.75 1017.62 1017.48 1017.31 1017.08 1016.79 1016.41 1015.96 1015.47 1014.96 1014.47 1014.05 1013.71 1013.45 1013.28 1013.15 1013.03 1012.89 1012.70 1012.44 1012.13 1011.78 1011.41 1011.05 1010.72 1010.43 1010.16 1009.90 1009.63 1009.33 1009.00 1008.64
1018.41 1018.50 1018.58 1018.64 1018.67 1018.67 1018.63 1018.55 1018.45 1018.34 1018.24 1018.14 1018.05 1017.94 1017.79 1017.58 1017.29 1016.91 1016.44 1015.91 1015.36 1014.82 1014.33 1013.91 1013.58 1013.31 1013.10 1012.89 1012.67 1012.41 1012.10 1011.74 1011.36 1010.99 1010.65 1010.34 1010.08 1009.85 1009.63 1009.40 1009.13 1008.82 1008.48
1018.62 1018.73 1018.82 1018.89 1018.92 1018.92 1018.87 1018.79 1018.69 1018.59 1018.50 1018.42 1018.35 1018.27 1018.15 1017.96 1017.69 1017.33 1016.87 1016.34 1015.77 1015.20 1014.67 1014.19 1013.78 1013.43 1013.12 1012.82 1012.50 1012.15 1011.76 1011.34 1010.92 1010.51 1010.15 1009.85 1009.60 1009.40 1009.21 1009.01 1008.78 1008.50 1008.19
1018.81 1018.95 1019.07 1019.15 1019.19 1019.18 1019.12 1019.03 1018.91 1018.80 1018.70 1018.62 1018.55 1018.48 1018.38 1018.23 1017.99 1017.65 1017.22 1016.70 1016.15 1015.57 1015.01 1014.50 1014.03 1013.61 1013.21 1012.82 1012.40 1011.96 1011.48 1010.98 1010.49 1010.03 1009.62 1009.29 1009.02 1008.81 1008.64 1008.47 1008.27 1008.04 1007.78
1018.99 1019.18 1019.34 1019.44 1019.49 1019.47 1019.40 1019.28 1019.14 1019.00 1018.87 1018.77 1018.69 1018.62 1018.53 1018.39 1018.18 1017.87 1017.47 1016.99 1016.45 1015.89 1015.33 1014.79 1014.28 1013.80 1013.34 1012.87 1012.38 1011.85 1011.28 1010.70 1010.13 1009.59 1009.11 1008.72 1008.41 1008.17 1007.98 1007.81 1007.65 1007.46 1007.26
1019.16 1019.41 1019.61 1019.75 1019.81 1019.80 1019.71 1019.57 1019.39 1019.21 1019.04 1018.91 1018.80 1018.71 1018.62 1018.49 1018.29 1018.01 1017.64 1017.19 1016.67 1016.12 1015.57 1015.02 1014.50 1013.99 1013.48 1012.97 1012.42 1011.82 1011.19 1010.54 1009.88 1009.26 1008.70 1008.21 1007.83 1007.52 1007.29 1007.12 1006.96 1006.82 1006.67
1019.31 1019.62 1019.88 1020.05 1020.14 1020.13 1020.03 1019.87 1019.65 1019.43 1019.22 1019.05 1018.91 1018.80 1018.69 1018.55 1018.36 1018.09 1017.74 1017.31 1016.81 1016.28 1015.73 1015.19 1014.66 1014.14 1013.63 1013.09 1012.52 1011.90 1011.22 1010.51 1009.79 1009.08 1008.42 1007.84 1007.35 1006.97 1006.67 1006.45 1006.29 1006.17 1006.09
1019.43 1019.80 1020.10 1020.31 1020.42 1020.43 1020.33 1020.14 1019.91 1019.66 1019.41 1019.21 1019.04 1018.90 1018.77 1018.63 1018.43 1018.16 1017.81 1017.39 1016.90 1016.37 1015.83 1015.29 1014.77 1014.27 1013.76 1013.24 1012.68 1012.06 1011.37 1010.63 1009.86 1009.08 1008.33 1007.64 1007.04 1006.55 1006.17 1005.89 1005.71 1005.60 1005.54
1019.49 1019.90 1020.25 1020.50 1020.64 1020.66 1020.56 1020.38 1020.14 1019.87 1019.61 1019.38 1019.20 1019.04 1018.90 1018.74 1018.53 1018.26 1017.90 1017.46 1016.97 1016.43 1015.89 1015.36 1014.85 1014.36 1013.89 1013.40 1012.87 1012.28 1011.62 1010.88 1010.08 1009.24 1008.42 1007.63 1006.93 1006.32 1005.84 1005.49 1005.25 1005.12 1005.08
1019.49 1019.93 1020.31 1020.59 1020.75 1020.79 1020.72 1020.55 1020.32 1020.06 1019.80 1019.58 1019.39 1019.23 1019.08 1018.91 1018.69 1018.40 1018.02 1017.57 1017.05 1016.50 1015.95 1015.41 1014.91 1014.45 1014.01 1013.57 1013.09 1012.55 1011.93 1011.21 1010.41 1009.55 1008.66 1007.80 1006.99 1006.28 1005.69 1005.25 1004.95 1004.78 1004.72
1019.43 1019.89 1020.28 1020.58 1020.77 1020.84 1020.79 1020.65 1020.45 1020.21 1019.98 1019.78 1019.60 1019.45 1019.30 1019.13 1018.90 1018.59 1018.19 1017.71 1017.17 1016.59 1016.02 1015.47 1014.98 1014.53 1014.12 1013.72 1013.30 1012.82 1012.25 1011.58 1010.80 1009.93 1009.01 1008.09 1007.20 1006.40 1005.71 1005.17 1004.79 1004.56 1004.45
1019.32 1019.79 1020.20 1020.52 1020.73 1020.82 1020.81 1020.71 1020.54 1020.35 1020.15 1019.98 1019.83 1019.69 1019.56 1019.38 1019.15 1018.82 1018.41 1017.90 1017.33 1016.72 1016.12 1015.56 1015.05 1014.61 1014.23 1013.86 1013.49 1013.06 1012.55 1011.93 1011.18 1010.33 1009.40 1008.45 1007.50 1006.63 1005.86 1005.24 1004.77 1004.46 1004.30
1019.21 1019.68 1020.09 1020.42 1020.66 1020.79 1020.81 1020.75 1020.62 1020.47 1020.31 1020.17 1020.05 1019.94 1019.81 1019.64 1019.40 1019.07 1018.63 1018.11 1017.51 1016.88 1016.26 1015.67 1015.15 1014.71 1014.33 1013.98 1013.64 1013.26 1012.80 1012.22 1011.52 1010.70 1009.79 1008.83 1007.87 1006.95 1006.13 1005.44 1004.90 1004.52 1004.28
Thickness
5728 5727 5725 5723 5724 5723 5723 5722 5723 5723 5723 5723 5722 5722 5722 5721 5720 5718 5715 5713 5713 5714 5715 5714 5714 5714 5714 5713 5713 5712 5712 5712 5712 5712 5712 5712 5713 5713 5713 5714 5714 5714 5714
5724 5722 5722 5720 5720 5719 5719 5719 5719 5718 5718 5717 5717 5716 5716 5715 5715 5713 5712 5709 5708 5708 5708 5708 5708 5708 5708 5708 5708 5707 5707 5707 5707 5708 5708 5708 5708 5709 5709 5709 5709 5709 5709
5720 5719 5718 5717 5716 5715 5715 5715 5715 5714 5714 5713 5712 5711 5711 5710 5710 5709 5707 5706 5705 5703 5702 5702 5702 5702 5702 5702 5703 5703 5703 5703 5703 5703 5703 5703 5703 5704 5704 5704 5705 5705 5705
5716 5715 5714 5713 5712 5711 5711 5710 5710 5710 5709 5708 5708 5707 5706 5704 5705 5704 5703 5702 5701 5700 5697 5696 5696 5696 5696 5697 5698 5698 5698 5698 5698 5698 5699 5699 5698 5699 5699 5700 5700 5700 5700
5712 5712 5710 5709 5709 5708 5708 5707 5706 5706 5704 5703 5703 5702 5702 5700 5699 5699 5699 5698 5696 5695 5694 5691 5691 5690 5690 5691 5692 5693 5693 5693 5694 5694 5694 5694 5694 5694 5694 5695 5695 5696 5696
5709 5708 5707 5707 5706 5705 5704 5703 5701 5701 5700 5699 5699 5698 5697 5697 5696 5695 5695 5693 5692 5690 5689 5688 5687 5686 5684 5685 5686 5687 5688 5689 5689 5689 5690 5689 5689 5690 5690 5690 5691 5691 5691
5704 5704 5704 5703 5702 5701 5700 5700 5698 5697 5696 5696 5695 5693 5693 5694 5692 5690 5690 5689 5688 5686 5685 5683 5682 5682 5681 5679 5680 5681 5682 5683 5683 5684 5684 5685 5685 5685 5686 5686 5686 5687 5687
5701 5700 5700 5700 5698 5696 5696 5695 5693 5693 5692 5692 5691 5688 5686 5686 5686 5687 5686 5684 5684 5682 5681 5680 5679 5677 5677 5677 5675 5675 5676 5677 5677 5678 5679 5680 5680 5681 5681 5682 5682 5682 5682
5697 5697 5697 5696 5695 5694 5693 5691 5690 5688 5687 5688 5688 5685 5682 5681 5681 5683 5682 5682 5680 5679 5678 5676 5675 5674 5673 5673 5672 5670 5671 5671 5672 5674 5674 5675 5675 5676 5676 5677 5677 5677 5677
5694 5694 5693 5692 5692 5691 5689 5688 5687 5686 5683 5682 5682 5682 5682 5680 5676 5675 5677 5678 5676 5675 5675 5673 5672 5671 5669 5669 5667 5666 5666 5666 5667 5669 5670 5670 5671 5671 5671 5672 5672 5672 5672
5691 5690 5689 5689 5688 5687 5686 5685 5683 5682 5681 5679 5678 5677 5676 5675 5676 5673 5670 5671 5672 5672 5671 5670 5668 5667 5666 5665 5664 5663 5662 5662 5663 5664 5665 5666 5666 5666 5667 5667 5667 5667 5668
5688 5687 5686 5685 5684 5683 5682 5680 5679 5678 5677 5675 5674 5674 5672 5671 5671 5670 5669 5668 5668 5668 5668 5667 5666 5664 5662 5661 5660 5658 5658 5658 5659 5659 5660 5661 5661 5662 5662 5662 5662 5662 5663
5685 5684 5682 5681 5680 5679 5678 5676 5675 5674 5673 5671 5670 5670 5669 5669 5668 5667 5666 5665 5664 5665 5664 5664 5662 5660 5659 5658 5657 5655 5655 5655 5655 5655 5655 5656 5656 5656 5656 5657 5657 5657 5658
5682 5681 5679 5677 5676 5674 5673 5671 5670 5669 5669 5668 5666 5665 5664 5664 5663 5662 5661 5660 5659 5661 5661 5661 5659 5657 5656 5655 5654 5652 5653 5651 5651 5651 5651 5651 5651 5651 5651 5652 5652 5652 5653
5677 5677 5675 5673 5672 5670 5668 5667 5665 5665 5664 5663 5662 5660 5659 5659 5658 5658 5658 5657 5655 5654 5656 5657 5655 5654 5652 5651 5649 5649 5650 5648 5647 5646 5646 5646 5646 5646 5647 5646 5647 5647 5648
5672 5671 5671 5669 5667 5665 5663 5662 5660 5659 5658 5657 5655 5655 5654 5654 5653 5653 5652 5652 5652 5650 5650 5653 5651 5650 5648 5647 5645 5646 5646 5643 5643 5642 5641 5641 5641 5642 5641 5641 5642 5642 5642
5668 5666 5665 5664 5662 5660 5658 5656 5654 5652 5652 5651 5650 5649 5648 5648 5647 5647 5647 5647 5646 5646 5645 5647 5647 5646 5644 5643 5641 5641 5642 5641 5640 5638 5637 5637 5636 5636 5636 5636 5636 5636 5637
5662 5660 5658 5657 5656 5654 5652 5650 5647 5646 5645 5644 5644 5643 5643 5642 5641 5641 5641 5641 5641 5641 5640 5640 5642 5640 5639 5639 5637 5637 5637 5637 5636 5634 5632 5632 5631 5631 5631 5631 5631 5631 5631
5655 5654 5652 5650 5649 5647 5645 5644 5642 5640 5639 5638 5637 5637 5636 5636 5635 5635 5635 5635 5635 5635 5634 5634 5636 5634 5634 5632 5631 5631 5632 5631 5631 5630 5628 5627 5626 5626 5626 5625 5625 5626 5626
5648 5646 5645 5644 5642 5640 5639 5637 5635 5634 5633 5632 5631 5630 5629 5629 5629 5629 5628 5629 5628 5628 5628 5628 5628 5628 5627 5626 5625 5625 5625 5626 5625 5626 5624 5623 5622 5621 5621 5620 5620 5620 5620
5640 5639 5637 5636 5635 5633 5631 5629 5627 5627 5626 5625 5624 5623 5622 5621 5620 5620 5621 5621 5620 5621 5621 5621 5621 5622 5622 5620 5620 5620 5619 5619 5620 5620 5620 5620 5619 5618 5617 5616 5616 5615 5615
5631 5630 5628 5627 5626 5625 5621 5618 5617 5617 5618 5617 5616 5616 5615 5613 5611 5610 5611 5611 5611 5612 5614 5614 5615 5616 5617 5617 5615 5613 5613 5613 5613 5615 5614 5614 5614 5614 5614 5614 5611 5610 5609
5622 5621 5619 5619 5618 5616 5613 5610 5607 5608 5609 5609 5609 5608 5608 5607 5605 5605 5605 5603 5604 5603 5604 5608 5609 5611 5611 5611 5609 5608 5608 5608 5609 5610 5607 5608 5609 5609 5609 5607 5605 5604 5604
5614 5612 5611 5611 5609 5608 5604 5601 5599 5600 5601 5602 5601 5601 5601 5601 5599 5598 5600 5600 5601 5601 5599 5600 5603 5605 5604 5603 5602 5602 5602 5602 5603 5603 5601 5602 5604 5603 5603 5602 5599 5598 5597
5606 5605 5603 5602 5601 5600 5596 5594 5591 5593 5595 5595 5595 5594 5593 5593 5592 5589 5591 5593 5594 5594 5592 5592 5593 5594 5594 5594 5593 5593 5594 5595 5596 5597 5595 5596 5597 5596 5597 5596 5594 5592 5591
5597 5596 5594 5593 5592 5591 5589 5586 5584 5586 5587 5588 5588 5587 5584 5584 5583 5581 5583 5585 5586 5587 5586 5586 5586 5586 5587 5587 5586 5587 5588 5589 5591 5591 5590 5589 5590 5589 5590 5591 5589 5587 5585